[[{"header":{"parameterUnit":"m.s-1","parameterCategory":1,"la1":30.2991,"la2":30.254,"lo1":-89.0895,"lo2":-89.0444,"dy":0.0017,"dx":0.0017,"nx":28,"ny":28,"refTime":"2025-03-16T09:00:00:Z","depth":0,"parameterNumber":2,"parameterNumberName":"U-component_of_WINDS"},"data":[0,0,0,0,0,0,0,0,0,0,0,0,0,0,0,0,0,0,0,0,0,0,0,0,0,0,0,0,0,0,0,0,0,0,0,0,0,0,0,0,0,0,0,0,0,0,0,0,0,0,0,0,0,0,0,0,0,0,6.2977,6.298,0,6.3174,6.3177,6.3179,6.317,6.3167,6.3164,6.3161,6.3365,6.3373,6.3381,0,0,0,0,0,0,0,0,0,0,0,0,0,6.2597,6.2604,6.2977,6.298,6.2982,6.3174,6.3177,6.3179,6.317,6.3167,6.3163,6.316,6.3362,6.3372,6.3381,0,0,0,0,0,0,0,0,0,0,0,0,0,6.2775,6.2606,6.2977,6.3001,6.3005,6.3173,6.3177,6.318,6.3171,6.3167,6.3162,6.3159,6.3359,6.3371,6.3383,6.3541,0,0,6.3419,6.3425,0,0,0,0,0,0,0,0,6.2765,6.2789,6.2995,6.2999,6.3004,6.3143,6.3117,6.3301,6.3172,6.3108,6.3161,6.3157,6.3295,6.3312,6.3358,6.355,6.3559,6.342,6.3428,6.3433,6.3436,0,0,0,0,0,0,0,6.2752,6.278,6.3055,6.2998,6.3004,6.3003,6.3023,6.3152,6.3222,6.3113,6.3113,6.3136,6.3296,6.3346,6.3363,6.3562,6.342,6.3431,6.3438,6.3443,6.3899,6.3904,0,0,0,0,0,0,6.2735,6.277,6.3049,6.3061,6.2872,6.3013,6.3036,6.3103,6.3221,6.3235,6.314,6.3135,6.3328,6.3349,6.337,6.3566,6.3433,6.3444,6.3451,6.3894,6.39,6.3906,0,0,0,0,0,0,6.2726,6.2759,6.3041,6.2916,6.2952,6.3024,6.3099,6.3109,6.3159,6.3241,6.3254,6.3178,6.3325,6.3353,6.3499,6.3573,6.345,6.346,6.3889,6.3896,6.3903,6.3957,0,0,0,0,0,0,6.2716,6.2757,6.2816,6.2917,6.2958,6.3166,6.3103,6.3116,6.3179,6.3175,6.328,6.3293,6.3324,6.3481,6.3511,6.3587,6.347,6.3882,6.3892,6.3901,6.3949,6.3965,6.3979,0,0,0,0,0,6.2702,6.2823,6.2819,6.2853,6.3034,6.317,6.3194,6.3227,6.3185,6.3247,6.33,6.329,6.356,6.3496,6.353,6.361,6.3878,6.3889,6.39,6.3942,6.3962,6.3979,0,0,0,0,0,0,6.2728,6.2837,6.2834,6.2991,6.3072,6.3168,6.3247,6.3246,6.334,6.3333,6.337,6.3394,6.3541,6.359,6.3518,6.3772,6.3714,6.3732,6.3734,6.3754,6.3769,6.3754,6.348,0,0,0,0,0,6.2753,6.2853,6.2943,6.3073,6.3114,6.3174,6.3234,6.3252,6.3338,6.3372,6.3436,6.352,6.3624,6.3692,6.3791,6.3956,6.3981,6.4028,6.4043,6.4055,6.4071,6.4166,6.4189,6.3942,6.3942,6.3942,0,0,6.2803,6.2875,6.2936,6.308,6.3145,6.325,6.3202,6.3314,6.3393,6.3389,6.3532,6.3582,6.3679,6.3836,6.3909,6.3882,6.4145,6.407,6.4078,6.4088,6.4179,6.4203,6.4224,6.3949,6.3948,6.3947,0,0,6.295,6.3013,6.313,6.3197,6.3296,6.3336,6.3364,6.3462,6.3496,6.364,6.364,6.3735,6.3912,6.3982,6.4041,6.4219,6.4214,6.425,6.4329,6.4421,6.444,6.4458,6.4524,6.4547,6.4265,6.4265,6.4266,0,6.3001,6.3158,6.3191,6.3305,6.337,6.3371,6.3492,6.3555,6.3681,6.3727,6.3695,6.392,6.3985,6.416,6.4204,6.4251,6.4286,6.4238,6.4435,6.4453,6.447,6.4533,6.4557,6.4269,6.4269,6.4268,6.4268,0,6.3217,6.3327,6.341,6.3533,6.3607,6.3723,6.3775,6.3847,6.386,6.3904,6.4052,6.4131,6.4248,6.4291,6.4304,6.447,6.4451,6.4426,6.4369,6.4496,6.4557,6.4581,6.4275,6.4274,6.4272,6.4271,0,0,6.3385,6.3527,6.3557,6.3614,6.3725,6.3811,6.393,6.4045,6.4107,6.4195,6.4296,6.4448,6.4428,6.4495,6.4516,6.4597,6.4736,6.4563,6.4566,6.4595,6.4927,6.4946,6.4973,6.4734,6.4738,6.4742,6.492,0,6.3544,6.3753,6.3788,6.3971,6.4075,6.408,6.4183,6.4264,6.4309,6.4404,6.4454,6.4562,6.4525,6.4566,6.4646,6.4702,6.4804,6.469,6.4831,6.4835,6.4807,6.5004,6.5024,6.5188,6.4944,6.4948,6.495,0,6.3758,6.3853,6.4048,6.4148,6.4193,6.4285,6.4395,6.4486,6.4579,6.4606,6.4682,6.4695,6.4821,6.4758,6.4932,6.4854,6.4914,6.4951,6.4958,6.4973,6.4901,6.5027,6.524,6.5266,6.4987,6.4984,6.4982,0,6.3864,6.404,6.4181,6.4229,6.4349,6.4415,6.4468,6.4556,6.4625,6.4721,6.4767,6.4877,6.4938,6.5024,6.5067,6.5017,6.5241,6.518,6.5269,6.5268,6.5316,6.5313,6.5544,6.5352,6.5352,6.5351,6.5351,0,6.404,6.4159,6.423,6.4316,6.4451,6.4491,6.4624,6.4676,6.4755,6.4853,6.4864,6.4956,6.5007,6.5108,6.5143,6.5284,6.5311,6.5338,6.5346,6.5338,6.5335,6.5379,6.5369,6.5358,6.5356,6.5355,6.5354,0,6.418,6.4232,6.4386,6.4488,6.4516,6.4612,6.47,6.4785,6.483,6.4955,6.4986,6.5058,6.5177,6.5229,6.5375,6.5399,6.5562,6.5561,6.5531,6.5534,6.5621,6.5612,6.5889,6.5929,6.5709,6.5711,6.5713,0,6.4289,6.4382,6.4494,6.4561,6.4616,6.4723,6.4793,6.4837,6.491,6.5024,6.5097,6.5216,6.5314,6.5505,6.5571,6.5684,6.5687,6.5776,6.5704,6.5694,6.5691,6.5686,6.5697,6.579,6.5792,6.5794,6.5795,0,6.4479,6.4501,6.4602,6.4713,6.4797,6.4886,6.4974,6.5028,6.5085,6.5168,6.529,6.5366,6.5517,6.5636,6.5754,6.5811,6.5814,6.5817,6.5845,6.5838,6.5817,6.5832,6.5569,6.5811,6.5809,6.5808,6.5807,6.5807,6.4609,6.4693,6.4786,6.4899,6.4969,6.5052,6.5138,6.5195,6.5297,6.5423,6.5443,6.5575,6.5669,6.5827,6.5889,6.5994,6.5972,6.601,6.602,6.603,6.6036,6.58,6.6015,6.6015,6.6014,6.6014,6.6014,0,6.4801,6.4862,6.4965,6.5089,6.5178,6.5173,6.5271,6.5346,6.5462,6.5549,6.5646,6.5788,6.5905,6.5981,6.61,6.617,6.6174,6.62,6.6196,6.6209,6.6047,6.6013,6.6194,6.6194,6.6194,6.6194,6.6194,6.6194,6.4912,6.5054,6.5088,6.5266,6.5327,6.5455,6.5512,6.5589,6.5659,6.5818,6.5915,6.5964,6.6048,6.6174,6.6282,6.6301,6.6346,6.6373,6.6391,6.6239,6.622,6.6202,6.6171,6.6381,6.6382,6.6545,6.6546,6.6548]},{"header":{"parameterUnit":"m.s-1","parameterCategory":1,"la1":30.2991,"la2":30.254,"lo1":-89.0895,"lo2":-89.0444,"dy":0.0017,"dx":0.0017,"nx":28,"ny":28,"refTime":"2025-03-16T09:00:00:Z","depth":0,"parameterNumber":3,"parameterNumberName":"V-component_of_WINDS"},"data":[0,0,0,0,0,0,0,0,0,0,0,0,0,0,0,0,0,0,0,0,0,0,0,0,0,0,0,0,0,0,0,0,0,0,0,0,0,0,0,0,0,0,0,0,0,0,0,0,0,0,0,0,0,0,0,0,0,0,-4.475,-4.4751,0,-4.4837,-4.4838,-4.4839,-4.4824,-4.4823,-4.4821,-4.482,-4.4906,-4.491,-4.4913,0,0,0,0,0,0,0,0,0,0,0,0,0,-4.4568,-4.4571,-4.4749,-4.4751,-4.4752,-4.4837,-4.4838,-4.4839,-4.4824,-4.4823,-4.4821,-4.4819,-4.4905,-4.4909,-4.4914,0,0,0,0,0,0,0,0,0,0,0,0,0,-4.465,-4.4573,-4.4749,-4.4755,-4.4756,-4.4837,-4.4838,-4.484,-4.4825,-4.4822,-4.482,-4.4818,-4.4903,-4.4909,-4.4914,-4.4994,0,0,-4.4931,-4.4934,0,0,0,0,0,0,0,0,-4.4646,-4.4657,-4.4753,-4.4754,-4.4756,-4.4817,-4.4806,-4.4891,-4.4825,-4.4799,-4.482,-4.4817,-4.4878,-4.4886,-4.4907,-4.4998,-4.5002,-4.4932,-4.4935,-4.4938,-4.4939,0,0,0,0,0,0,0,-4.464,-4.4653,-4.4784,-4.4754,-4.4756,-4.4752,-4.4761,-4.4822,-4.485,-4.4801,-4.48,-4.4811,-4.4879,-4.4902,-4.4909,-4.5003,-4.4932,-4.4937,-4.494,-4.4942,-4.5166,-4.5169,0,0,0,0,0,0,-4.4633,-4.4648,-4.4781,-4.4787,-4.4694,-4.4757,-4.4768,-4.48,-4.4849,-4.4855,-4.4812,-4.481,-4.4893,-4.4902,-4.4912,-4.501,-4.4938,-4.4943,-4.4946,-4.5163,-4.5167,-4.5169,0,0,0,0,0,0,-4.4629,-4.4645,-4.4778,-4.4717,-4.4734,-4.4763,-4.4799,-4.4803,-4.4826,-4.4858,-4.4863,-4.4831,-4.4892,-4.4904,-4.4974,-4.5012,-4.4945,-4.495,-4.516,-4.5164,-4.5168,-4.5205,0,0,0,0,0,0,-4.4624,-4.4644,-4.4675,-4.4718,-4.4737,-4.4839,-4.4802,-4.4806,-4.4836,-4.4833,-4.4877,-4.4882,-4.4891,-4.4966,-4.498,-4.5019,-4.4955,-4.5157,-4.5162,-4.5167,-4.5201,-4.521,-4.5218,0,0,0,0,0,-4.4618,-4.468,-4.4676,-4.4692,-4.4777,-4.4842,-4.4852,-4.4863,-4.4839,-4.487,-4.4891,-4.488,-4.5006,-4.4974,-4.4989,-4.503,-4.5155,-4.5161,-4.5166,-4.5197,-4.5208,-4.5218,0,0,0,0,0,0,-4.4639,-4.4686,-4.4682,-4.4761,-4.4798,-4.4839,-4.4878,-4.4874,-4.4917,-4.4912,-4.4922,-4.4932,-4.5004,-4.5024,-4.4987,-4.5111,-4.5077,-4.5086,-4.5095,-4.5106,-4.5114,-4.5108,-4.4959,0,0,0,0,0,-4.4653,-4.4703,-4.4741,-4.4807,-4.4826,-4.4849,-4.4878,-4.4883,-4.4921,-4.4936,-4.4962,-4.4998,-4.5046,-4.5077,-4.5123,-4.5204,-4.5213,-4.524,-4.5248,-4.5255,-4.5263,-4.5309,-4.5321,-4.5189,-4.5189,-4.5189,0,0,-4.4682,-4.4714,-4.4745,-4.4812,-4.4841,-4.4892,-4.4862,-4.4917,-4.4954,-4.4943,-4.5012,-4.5033,-4.5074,-4.5151,-4.5186,-4.5169,-4.5302,-4.5263,-4.5268,-4.5272,-4.5316,-4.5328,-4.5339,-4.5193,-4.5192,-4.5191,0,0,-4.4761,-4.4791,-4.485,-4.488,-4.4925,-4.494,-4.4954,-4.4997,-4.5011,-4.508,-4.5074,-4.5118,-4.52,-4.5231,-4.5257,-4.535,-4.5342,-4.5365,-4.5409,-4.5453,-4.5464,-4.5473,-4.5507,-4.5519,-4.5372,-4.5372,-4.5372,0,-4.4792,-4.4869,-4.488,-4.4936,-4.4966,-4.4961,-4.5021,-4.5049,-4.5106,-4.5127,-4.5108,-4.5213,-4.524,-4.5324,-4.5347,-4.5368,-4.5385,-4.5359,-4.5461,-4.5471,-4.548,-4.5512,-4.5525,-4.5375,-4.5374,-4.5374,-4.5374,0,-4.4904,-4.4958,-4.5,-4.5057,-4.5092,-4.515,-4.517,-4.5203,-4.5206,-4.5223,-4.5295,-4.5328,-4.5381,-4.5401,-4.5403,-4.5486,-4.5475,-4.5459,-4.5425,-4.5495,-4.5525,-4.5538,-4.5378,-4.5377,-4.5377,-4.5376,0,0,-4.4998,-4.5062,-4.5078,-4.5104,-4.5154,-4.5195,-4.5253,-4.5307,-4.5336,-4.5376,-4.5424,-4.5495,-4.5481,-4.5511,-4.5517,-4.5556,-4.5629,-4.5535,-4.5536,-4.5552,-4.5723,-4.5735,-4.5749,-4.5624,-4.5626,-4.5628,-4.572,0,-4.5082,-4.5185,-4.5198,-4.5289,-4.5339,-4.5336,-4.5386,-4.5422,-4.5441,-4.5485,-4.5505,-4.5555,-4.5533,-4.5551,-4.559,-4.5612,-4.5663,-4.5605,-4.5669,-4.5671,-4.5659,-4.5765,-4.5777,-4.5862,-4.5732,-4.5734,-4.5735,0,-4.5194,-4.5239,-4.5336,-4.5381,-4.5402,-4.5447,-4.5498,-4.5541,-4.5582,-4.5593,-4.5627,-4.5629,-4.5688,-4.5653,-4.5735,-4.5696,-4.5723,-4.5738,-4.5741,-4.5747,-4.5707,-4.5774,-4.5889,-4.5902,-4.5754,-4.5753,-4.5751,0,-4.5253,-4.5338,-4.5407,-4.543,-4.5484,-4.5516,-4.554,-4.5579,-4.5611,-4.5655,-4.5676,-4.5726,-4.5753,-4.5792,-4.5807,-4.5779,-4.5889,-4.5854,-4.5899,-4.5899,-4.5922,-4.592,-4.6043,-4.5939,-4.5939,-4.5939,-4.5939,0,-4.5346,-4.5406,-4.5435,-4.5478,-4.5544,-4.5559,-4.5624,-4.5647,-4.5682,-4.5729,-4.5728,-4.5772,-4.5789,-4.5836,-4.5847,-4.5915,-4.5927,-4.5937,-4.5939,-4.5937,-4.5936,-4.5955,-4.5949,-4.5942,-4.5942,-4.5941,-4.594,0,-4.5423,-4.5446,-4.5521,-4.5567,-4.558,-4.5627,-4.5666,-4.5707,-4.5725,-4.5785,-4.5799,-4.5828,-4.5883,-4.5902,-4.5968,-4.5977,-4.6055,-4.6052,-4.6041,-4.6042,-4.6086,-4.6082,-4.6225,-4.6245,-4.6128,-4.6129,-4.613,0,-4.5481,-4.5527,-4.5579,-4.5611,-4.5636,-4.5687,-4.572,-4.5737,-4.5771,-4.5823,-4.5858,-4.5913,-4.5957,-4.6046,-4.6072,-4.6123,-4.6122,-4.6169,-4.6129,-4.6126,-4.6123,-4.612,-4.6125,-4.6176,-4.6177,-4.6178,-4.6179,0,-4.5582,-4.5591,-4.5639,-4.5692,-4.5732,-4.5774,-4.5814,-4.584,-4.5863,-4.5901,-4.5959,-4.5994,-4.6062,-4.6117,-4.617,-4.6194,-4.619,-4.6191,-4.6204,-4.6202,-4.6194,-4.62,-4.6062,-4.6187,-4.6187,-4.6186,-4.6185,-4.6185,-4.5651,-4.5693,-4.5736,-4.579,-4.5823,-4.5861,-4.5903,-4.5927,-4.5976,-4.6034,-4.604,-4.6102,-4.6143,-4.6214,-4.624,-4.6289,-4.6276,-4.6294,-4.6299,-4.6304,-4.6308,-4.6187,-4.6298,-4.6298,-4.6298,-4.6298,-4.6297,0,-4.5752,-4.578,-4.583,-4.5888,-4.5931,-4.5926,-4.5971,-4.6007,-4.6061,-4.6101,-4.6146,-4.6212,-4.6265,-4.6297,-4.6351,-4.6383,-4.6383,-4.6397,-4.6395,-4.64,-4.6316,-4.6299,-4.6396,-4.6396,-4.6396,-4.6396,-4.6396,-4.6396,-4.581,-4.588,-4.5895,-4.5981,-4.6009,-4.607,-4.6097,-4.6132,-4.6164,-4.6238,-4.6283,-4.6304,-4.6341,-4.6398,-4.6447,-4.6454,-4.6474,-4.649,-4.6496,-4.6416,-4.6406,-4.6396,-4.6381,-4.6494,-4.6494,-4.6577,-4.6578,-4.6578]}]]